• In Czech Republic
  • List of Countries
  • For 7 days
  • Water Temperature
  • Satellite Maps
  • Weather Map
  • Weather Widgets
  • user-avatar
    Login

    Hourly Weather Zorya

    Today, 23 September, Sunday

    Time Temperature Precipitation Wind Pressure Humidity
    00:00 +10°C° 0.9 mm 6 mps 752 mmHg 85%
    01:00 +9°C° 0.9 mm 5 mps 752 mmHg 85%
    02:00 +10°C° 0 mm 3 mps 752 mmHg 86%
    03:00 +9°C° 0 mm 3 mps 752 mmHg 87%
    04:00 +9°C° 0 mm 3 mps 752 mmHg 87%
    05:00 +9°C° 0 mm 3 mps 752 mmHg 88%
    06:00 +10°C° 0 mm 3 mps 752 mmHg 86%
    07:00 +10°C° 0 mm 3 mps 752 mmHg 84%
    08:00 +11°C° 0 mm 4 mps 752 mmHg 81%
    09:00 +12°C° 0 mm 4 mps 752 mmHg 74%
    10:00 +14°C° 0 mm 4 mps 752 mmHg 66%
    11:00 +15°C° 0 mm 5 mps 752 mmHg 59%
    12:00 +16°C° 0 mm 5 mps 752 mmHg 56%
    13:00 +16°C° 0 mm 5 mps 752 mmHg 53%
    14:00 +18°C° 0 mm 4 mps 752 mmHg 50%
    15:00 +17°C° 0 mm 4 mps 752 mmHg 53%
    16:00 +17°C° 0 mm 3 mps 751 mmHg 55%
    17:00 +16°C° 0 mm 3 mps 751 mmHg 58%
    18:00 +15°C° 0 mm 2 mps 751 mmHg 60%
    19:00 +14°C° 0 mm 2 mps 752 mmHg 63%
    20:00 +13°C° 0 mm 2 mps 752 mmHg 66%
    21:00 +13°C° 0 mm 2 mps 751 mmHg 67%
    22:00 +12°C° 0 mm 3 mps 751 mmHg 68%
    23:00 +11°C° 0 mm 3 mps 751 mmHg 68%

    Tomorrow, 24 September, Monday

    Time Temperature Precipitation Wind Pressure Humidity
    00:00 +12°C° 0 mm 4 mps 750 mmHg 66%
    01:00 +12°C° 0 mm 4 mps 750 mmHg 64%
    02:00 +13°C° 0 mm 5 mps 749 mmHg 62%
    03:00 +13°C° 0 mm 6 mps 748 mmHg 58%
    04:00 +12°C° 0 mm 7 mps 747 mmHg 55%
    05:00 +13°C° 0 mm 8 mps 745 mmHg 51%
    06:00 +12°C° 1.7 mm 7 mps 745 mmHg 60%
    07:00 +13°C° 1.7 mm 6 mps 744 mmHg 68%
    08:00 +13°C° 1.7 mm 5 mps 744 mmHg 77%
    09:00 +14°C° 1.4 mm 6 mps 743 mmHg 81%
    10:00 +14°C° 1.4 mm 7 mps 742 mmHg 85%
    11:00 +15°C° 1.4 mm 8 mps 742 mmHg 89%
    12:00 +15°C° 1.4 mm 8 mps 742 mmHg 86%
    13:00 +15°C° 1.4 mm 8 mps 742 mmHg 84%
    14:00 +13°C° 1.4 mm 9 mps 742 mmHg 81%
    15:00 +12°C° 0.2 mm 9 mps 742 mmHg 78%
    16:00 +11°C° 0.2 mm 8 mps 743 mmHg 76%
    17:00 +10°C° 0.2 mm 8 mps 744 mmHg 74%
    18:00 +10°C° 0 mm 7 mps 745 mmHg 74%
    19:00 +10°C° 0 mm 7 mps 745 mmHg 75%
    20:00 +9°C° 0 mm 6 mps 746 mmHg 76%
    21:00 +9°C° 0 mm 6 mps 746 mmHg 76%
    22:00 +9°C° 0 mm 6 mps 746 mmHg 77%
    23:00 +8°C° 0 mm 6 mps 746 mmHg 78%

    Day after tomorrow, 25 September, Tuesday

    Time Temperature Precipitation Wind Pressure Humidity
    00:00 +8°C° 0 mm 6 mps 747 mmHg 79%
    01:00 +8°C° 0 mm 6 mps 747 mmHg 79%
    02:00 +7°C° 0 mm 6 mps 747 mmHg 80%
    03:00 +7°C° 0.2 mm 6 mps 747 mmHg 82%
    04:00 +7°C° 0.2 mm 5 mps 748 mmHg 84%
    05:00 +7°C° 0.2 mm 5 mps 748 mmHg 86%
    06:00 +7°C° 0.9 mm 5 mps 748 mmHg 86%
    07:00 +7°C° 0.9 mm 6 mps 749 mmHg 86%
    08:00 +7°C° 0.9 mm 6 mps 750 mmHg 86%
    09:00 +8°C° 0.1 mm 6 mps 750 mmHg 80%
    10:00 +8°C° 0.1 mm 7 mps 751 mmHg 75%
    11:00 +9°C° 0.1 mm 7 mps 752 mmHg 69%
    12:00 +9°C° 0 mm 7 mps 752 mmHg 63%
    13:00 +10°C° 0 mm 7 mps 753 mmHg 56%
    14:00 +11°C° 0 mm 8 mps 753 mmHg 50%
    15:00 +10°C° 0 mm 7 mps 754 mmHg 52%
    16:00 +9°C° 0 mm 6 mps 754 mmHg 54%
    17:00 +9°C° 0 mm 5 mps 754 mmHg 56%
    18:00 +8°C° 0 mm 5 mps 755 mmHg 58%
    19:00 +7°C° 0 mm 5 mps 756 mmHg 61%
    20:00 +6°C° 0 mm 5 mps 756 mmHg 64%
    21:00 +6°C° 0 mm 5 mps 757 mmHg 66%
    22:00 +6°C° 0 mm 5 mps 757 mmHg 68%
    23:00 +6°C° 0 mm 5 mps 758 mmHg 70%

    26 September, Wednesday

    Time Temperature Precipitation Wind Pressure Humidity
    00:00 +5°C° 0 mm 5 mps 758 mmHg 72%
    01:00 +5°C° 0 mm 4 mps 758 mmHg 73%
    02:00 +5°C° 0 mm 4 mps 759 mmHg 75%
    03:00 +4°C° 0 mm 4 mps 759 mmHg 75%
    04:00 +4°C° 0 mm 4 mps 760 mmHg 75%
    05:00 +3°C° 0 mm 4 mps 760 mmHg 75%
    06:00 +4°C° 0 mm 4 mps 761 mmHg 71%
    07:00 +3°C° 0 mm 5 mps 761 mmHg 67%
    08:00 +5°C° 0 mm 5 mps 762 mmHg 63%
    09:00 +6°C° 0 mm 5 mps 762 mmHg 56%
    10:00 +8°C° 0 mm 5 mps 762 mmHg 50%
    11:00 +9°C° 0 mm 5 mps 762 mmHg 43%
    12:00 +10°C° 0 mm 5 mps 762 mmHg 43%
    13:00 +10°C° 0 mm 5 mps 762 mmHg 43%
    14:00 +12°C° 0 mm 4 mps 762 mmHg 43%
    15:00 +11°C° 0 mm 4 mps 762 mmHg 46%
    16:00 +11°C° 0 mm 3 mps 762 mmHg 50%
    17:00 +10°C° 0 mm 2 mps 762 mmHg 53%
    18:00 +9°C° 0 mm 2 mps 762 mmHg 56%
    19:00 +8°C° 0 mm 3 mps 762 mmHg 58%
    20:00 +7°C° 0 mm 3 mps 762 mmHg 61%
    21:00 +7°C° 0 mm 3 mps 762 mmHg 63%
    22:00 +7°C° 0 mm 3 mps 761 mmHg 64%
    23:00 +7°C° 0 mm 3 mps 761 mmHg 66%

    27 September, Thursday

    Time Temperature Precipitation Wind Pressure Humidity
    00:00 +6°C° 0 mm 4 mps 761 mmHg 64%
    01:00 +6°C° 0 mm 4 mps 760 mmHg 63%
    02:00 +7°C° 0 mm 5 mps 760 mmHg 61%
    03:00 +7°C° 0 mm 5 mps 759 mmHg 61%
    04:00 +7°C° 0 mm 5 mps 758 mmHg 61%
    05:00 +7°C° 0 mm 6 mps 758 mmHg 61%
    06:00 +7°C° 0 mm 6 mps 757 mmHg 61%
    07:00 +6°C° 0 mm 7 mps 757 mmHg 61%
    08:00 +8°C° 0 mm 7 mps 757 mmHg 62%
    09:00 +9°C° 0 mm 7 mps 756 mmHg 62%
    10:00 +10°C° 0 mm 7 mps 756 mmHg 62%
    11:00 +10°C° 0 mm 7 mps 756 mmHg 62%
    12:00 +11°C° 0 mm 7 mps 755 mmHg 62%
    13:00 +12°C° 0 mm 7 mps 755 mmHg 62%
    14:00 +12°C° 0 mm 7 mps 755 mmHg 63%
    15:00 +13°C° 0 mm 6 mps 755 mmHg 66%
    16:00 +11°C° 0 mm 6 mps 755 mmHg 70%
    17:00 +12°C° 0 mm 5 mps 755 mmHg 74%
    18:00 +10°C° 0 mm 5 mps 755 mmHg 77%
    19:00 +11°C° 0 mm 4 mps 755 mmHg 81%
    20:00 +10°C° 0 mm 4 mps 755 mmHg 84%
    21:00 +10°C° 0 mm 4 mps 755 mmHg 86%
    22:00 +9°C° 0 mm 3 mps 755 mmHg 88%
    23:00 +9°C° 0 mm 3 mps 755 mmHg 90%

    28 September, Friday

    Time Temperature Precipitation Wind Pressure Humidity
    00:00 +9°C° 0 mm 3 mps 755 mmHg 91%
    01:00 +9°C° 0 mm 3 mps 755 mmHg 93%
    02:00 +9°C° 0 mm 3 mps 755 mmHg 94%
    03:00 +9°C° 0 mm 3 mps 754 mmHg 95%
    04:00 +9°C° 0 mm 3 mps 754 mmHg 95%
    05:00 +9°C° 0 mm 3 mps 754 mmHg 95%
    06:00 +10°C° 0 mm 3 mps 754 mmHg 92%
    07:00 +11°C° 0 mm 4 mps 754 mmHg 89%
    08:00 +12°C° 0 mm 4 mps 753 mmHg 86%
    09:00 +14°C° 0 mm 4 mps 753 mmHg 80%
    10:00 +17°C° 0 mm 4 mps 753 mmHg 73%
    11:00 +19°C° 0 mm 5 mps 753 mmHg 67%
    12:00 +20°C° 0 mm 5 mps 752 mmHg 64%
    13:00 +21°C° 0 mm 5 mps 752 mmHg 61%
    14:00 +21°C° 0 mm 5 mps 752 mmHg 57%
    15:00 +21°C° 0 mm 4 mps 751 mmHg 62%
    16:00 +20°C° 0 mm 4 mps 751 mmHg 66%
    17:00 +19°C° 0 mm 3 mps 751 mmHg 70%
    18:00 +18°C° 0 mm 3 mps 751 mmHg 74%
    19:00 +17°C° 0 mm 3 mps 752 mmHg 78%
    20:00 +16°C° 0 mm 3 mps 752 mmHg 82%
    21:00 +16°C° 0 mm 3 mps 752 mmHg 84%
    22:00 +15°C° 0 mm 2 mps 752 mmHg 86%
    23:00 +15°C° 0 mm 2 mps 753 mmHg 88%
    Show more